owner,sensor,date,latitude,longitude,vertical_datum,wind_speed,wind_to_direction,wind_speed_of_gust,qcFlag 
ADCP,ioos:station:wmo:42361:1,2013-07-01T00:30:00Z,27.5500,-92.4900,122.0,6.9,327.0,99.0,'11111222,11111222,11144222' 
ADCP,ioos:station:wmo:42361:1,2013-07-01T01:30:00Z,27.5500,-92.4900,122.0,5.4,320.0,99.0,'11111222,11111222,11144222' 
ADCP,ioos:station:wmo:42361:1,2013-07-01T02:30:00Z,27.5500,-92.4900,122.0,6.0,340.0,99.0,'11111222,11111222,11144222' 
ADCP,ioos:station:wmo:42361:1,2013-07-01T03:30:00Z,27.5500,-92.4900,122.0,5.8,350.0,99.0,'11111222,11111222,11144222' 
ADCP,ioos:station:wmo:42361:1,2013-07-01T04:30:00Z,27.5500,-92.4900,122.0,4.0,351.0,99.0,'11111222,11111222,11144222' 
ADCP,ioos:station:wmo:42361:1,2013-07-01T05:30:00Z,27.5500,-92.4900,122.0,1.9,8.0,99.0,'11111222,11111222,11144222' 
ADCP,ioos:station:wmo:42361:1,2013-07-01T06:30:00Z,27.5500,-92.4900,122.0,0.2,3.0,99.0,'11111222,11111222,11144222' 
ADCP,ioos:station:wmo:42361:1,2013-07-01T07:30:00Z,27.5500,-92.4900,122.0,0.6,47.0,99.0,'11111222,11111222,11144222' 
ADCP,ioos:station:wmo:42361:1,2013-07-01T08:30:00Z,27.5500,-92.4900,122.0,3.1,182.0,99.0,'11111222,11111222,11144222' 
ADCP,ioos:station:wmo:42361:1,2013-07-01T09:30:00Z,27.5500,-92.4900,122.0,6.6,224.0,99.0,'11111222,11111222,11144222' 
ADCP,ioos:station:wmo:42361:1,2013-07-01T10:30:00Z,27.5500,-92.4900,122.0,6.0,257.0,99.0,'11111222,11111222,11144222' 
ADCP,ioos:station:wmo:42361:1,2013-07-01T11:30:00Z,27.5500,-92.4900,122.0,5.9,267.0,99.0,'11111222,11111222,11144222' 
ADCP,ioos:station:wmo:42361:1,2013-07-01T12:30:00Z,27.5500,-92.4900,122.0,5.7,270.0,99.0,'11111222,11111222,11144222' 
ADCP,ioos:station:wmo:42361:1,2013-07-01T13:30:00Z,27.5500,-92.4900,122.0,4.3,270.0,99.0,'11111222,11111222,11144222' 
ADCP,ioos:station:wmo:42361:1,2013-07-01T14:30:00Z,27.5500,-92.4900,122.0,3.2,279.0,99.0,'11111222,11111222,11144222' 
ADCP,ioos:station:wmo:42361:1,2013-07-01T15:30:00Z,27.5500,-92.4900,122.0,2.3,282.0,99.0,'11111222,11111222,11144222' 
ADCP,ioos:station:wmo:42361:1,2013-07-01T16:30:00Z,27.5500,-92.4900,122.0,1.8,285.0,99.0,'11111222,11111222,11144222' 
ADCP,ioos:station:wmo:42361:1,2013-07-01T17:30:00Z,27.5500,-92.4900,122.0,2.0,280.0,99.0,'11111222,11111222,11144222' 
ADCP,ioos:station:wmo:42361:1,2013-07-01T18:30:00Z,27.5500,-92.4900,122.0,1.1,310.0,99.0,'11111222,11111222,11144222' 
ADCP,ioos:station:wmo:42361:1,2013-07-01T19:30:00Z,27.5500,-92.4900,122.0,2.8,269.0,99.0,'11111222,11111222,11144222' 
ADCP,ioos:station:wmo:42361:1,2013-07-01T21:30:00Z,27.5500,-92.4900,122.0,2.6,297.0,99.0,'11111222,11111222,11144222' 
ADCP,ioos:station:wmo:42361:1,2013-07-01T22:30:00Z,27.5500,-92.4900,122.0,2.9,297.0,99.0,'11111222,11111222,11144222' 
ADCP,ioos:station:wmo:42361:1,2013-07-01T23:30:00Z,27.5500,-92.4900,122.0,3.2,320.0,99.0,'11111222,11111222,11144222' 
ADCP,ioos:station:wmo:42361:1,2013-07-02T00:30:00Z,27.5500,-92.4900,122.0,8.8,4.0,99.0,'11111222,11111222,11144222' 
ADCP,ioos:station:wmo:42361:1,2013-07-02T01:30:00Z,27.5500,-92.4900,122.0,9.2,1.0,99.0,'11111222,11111222,11144222' 
ADCP,ioos:station:wmo:42361:1,2013-07-02T02:30:00Z,27.5500,-92.4900,122.0,8.6,9.0,99.0,'11111222,11111222,11144222' 
ADCP,ioos:station:wmo:42361:1,2013-07-02T03:30:00Z,27.5500,-92.4900,122.0,8.3,13.0,99.0,'11111222,11111222,11144222' 
ADCP,ioos:station:wmo:42361:1,2013-07-02T04:30:00Z,27.5500,-92.4900,122.0,7.8,18.0,99.0,'11111222,11111222,11144222' 
ADCP,ioos:station:wmo:42361:1,2013-07-02T05:30:00Z,27.5500,-92.4900,122.0,6.7,21.0,99.0,'11111222,11111222,11144222' 
ADCP,ioos:station:wmo:42361:1,2013-07-02T06:30:00Z,27.5500,-92.4900,122.0,5.3,24.0,99.0,'11111222,11111222,11144222' 
ADCP,ioos:station:wmo:42361:1,2013-07-02T07:30:00Z,27.5500,-92.4900,122.0,4.9,25.0,99.0,'11111222,11111222,11144222' 
ADCP,ioos:station:wmo:42361:1,2013-07-02T08:30:00Z,27.5500,-92.4900,122.0,4.0,19.0,99.0,'11111222,11111222,11144222' 
ADCP,ioos:station:wmo:42361:1,2013-07-02T09:30:00Z,27.5500,-92.4900,122.0,3.6,12.0,99.0,'11111222,11111222,11144222' 
ADCP,ioos:station:wmo:42361:1,2013-07-02T10:30:00Z,27.5500,-92.4900,122.0,3.6,4.0,99.0,'11111222,11111222,11144222' 
ADCP,ioos:station:wmo:42361:1,2013-07-02T11:30:00Z,27.5500,-92.4900,122.0,3.7,355.0,99.0,'11111222,11111222,11144222' 
ADCP,ioos:station:wmo:42361:1,2013-07-02T12:30:00Z,27.5500,-92.4900,122.0,4.3,352.0,99.0,'11111222,11111222,11144222' 
ADCP,ioos:station:wmo:42361:1,2013-07-02T13:30:00Z,27.5500,-92.4900,122.0,4.3,346.0,99.0,'11111222,11111222,11144222' 
ADCP,ioos:station:wmo:42361:1,2013-07-02T14:30:00Z,27.5500,-92.4900,122.0,4.7,344.0,99.0,'11111222,11111222,11144222' 
ADCP,ioos:station:wmo:42361:1,2013-07-02T15:30:00Z,27.5500,-92.4900,122.0,5.1,353.0,99.0,'11111222,11111222,11144222' 
ADCP,ioos:station:wmo:42361:1,2013-07-02T16:30:00Z,27.5500,-92.4900,122.0,5.6,3.0,99.0,'11111222,11111222,11144222' 
ADCP,ioos:station:wmo:42361:1,2013-07-02T17:30:00Z,27.5500,-92.4900,122.0,5.7,5.0,99.0,'11111222,11111222,11144222' 
ADCP,ioos:station:wmo:42361:1,2013-07-02T18:30:00Z,27.5500,-92.4900,122.0,5.8,2.0,99.0,'11111222,11111222,11144222' 
ADCP,ioos:station:wmo:42361:1,2013-07-02T19:30:00Z,27.5500,-92.4900,122.0,6.4,2.0,99.0,'11111222,11111222,11144222' 
ADCP,ioos:station:wmo:42361:1,2013-07-02T20:30:00Z,27.5500,-92.4900,122.0,8.0,360.0,99.0,'11111222,11144222,11144222' 
ADCP,ioos:station:wmo:42361:1,2013-07-02T21:30:00Z,27.5500,-92.4900,122.0,7.8,2.0,99.0,'11111222,11111222,11144222' 
ADCP,ioos:station:wmo:42361:1,2013-07-02T22:30:00Z,27.5500,-92.4900,122.0,7.5,360.0,99.0,'11111222,11144222,11144222' 
ADCP,ioos:station:wmo:42361:1,2013-07-02T23:30:00Z,27.5500,-92.4900,122.0,6.9,6.0,99.0,'11111222,11111222,11144222' 
ADCP,ioos:station:wmo:42361:1,2013-07-03T00:30:00Z,27.5500,-92.4900,122.0,6.6,359.0,99.0,'11111222,11111222,11144222' 
ADCP,ioos:station:wmo:42361:1,2013-07-03T01:30:00Z,27.5500,-92.4900,122.0,6.4,1.0,99.0,'11111222,11111222,11144222' 
ADCP,ioos:station:wmo:42361:1,2013-07-03T02:30:00Z,27.5500,-92.4900,122.0,6.1,2.0,99.0,'11111222,11111222,11144222' 
ADCP,ioos:station:wmo:42361:1,2013-07-03T03:30:00Z,27.5500,-92.4900,122.0,6.0,8.0,99.0,'11111222,11111222,11144222' 
ADCP,ioos:station:wmo:42361:1,2013-07-03T04:30:00Z,27.5500,-92.4900,122.0,6.2,11.0,99.0,'11111222,11111222,11144222' 
ADCP,ioos:station:wmo:42361:1,2013-07-03T05:30:00Z,27.5500,-92.4900,122.0,5.2,20.0,99.0,'11111222,11111222,11144222' 
ADCP,ioos:station:wmo:42361:1,2013-07-03T06:30:00Z,27.5500,-92.4900,122.0,4.0,6.0,99.0,'11111222,11111222,11144222' 
ADCP,ioos:station:wmo:42361:1,2013-07-03T07:30:00Z,27.5500,-92.4900,122.0,4.4,356.0,99.0,'11111222,11111222,11144222' 
ADCP,ioos:station:wmo:42361:1,2013-07-03T08:30:00Z,27.5500,-92.4900,122.0,5.0,340.0,99.0,'11111222,11111222,11144222' 
ADCP,ioos:station:wmo:42361:1,2013-07-03T09:30:00Z,27.5500,-92.4900,122.0,5.2,332.0,99.0,'11111222,11111222,11144222' 
ADCP,ioos:station:wmo:42361:1,2013-07-03T10:30:00Z,27.5500,-92.4900,122.0,5.8,329.0,99.0,'11111222,11111222,11144222' 
ADCP,ioos:station:wmo:42361:1,2013-07-03T11:30:00Z,27.5500,-92.4900,122.0,5.9,329.0,99.0,'11111222,11111222,11144222' 
ADCP,ioos:station:wmo:42361:1,2013-07-03T12:30:00Z,27.5500,-92.4900,122.0,6.6,335.0,99.0,'11111222,11111222,11144222' 
ADCP,ioos:station:wmo:42361:1,2013-07-03T13:30:00Z,27.5500,-92.4900,122.0,6.9,335.0,99.0,'11111222,11111222,11144222' 
ADCP,ioos:station:wmo:42361:1,2013-07-03T14:30:00Z,27.5500,-92.4900,122.0,6.5,352.0,99.0,'11111222,11111222,11144222' 
ADCP,ioos:station:wmo:42361:1,2013-07-03T15:30:00Z,27.5500,-92.4900,122.0,7.2,354.0,99.0,'11111222,11111222,11144222' 
ADCP,ioos:station:wmo:42361:1,2013-07-03T16:30:00Z,27.5500,-92.4900,122.0,8.5,5.0,99.0,'11111222,11111222,11144222' 
ADCP,ioos:station:wmo:42361:1,2013-07-03T17:30:00Z,27.5500,-92.4900,122.0,8.1,13.0,99.0,'11111222,11111222,11144222' 
ADCP,ioos:station:wmo:42361:1,2013-07-03T18:30:00Z,27.5500,-92.4900,122.0,8.5,16.0,99.0,'11111222,11111222,11144222' 
ADCP,ioos:station:wmo:42361:1,2013-07-03T19:30:00Z,27.5500,-92.4900,122.0,6.9,20.0,99.0,'11111222,11111222,11144222' 
ADCP,ioos:station:wmo:42361:1,2013-07-03T20:30:00Z,27.5500,-92.4900,122.0,6.6,11.0,99.0,'11111222,11111222,11144222' 
ADCP,ioos:station:wmo:42361:1,2013-07-03T21:30:00Z,27.5500,-92.4900,122.0,5.7,2.0,99.0,'11111222,11111222,11144222' 
ADCP,ioos:station:wmo:42361:1,2013-07-03T22:30:00Z,27.5500,-92.4900,122.0,6.8,1.0,99.0,'11111222,11111222,11144222' 
ADCP,ioos:station:wmo:42361:1,2013-07-03T23:30:00Z,27.5500,-92.4900,122.0,7.1,4.0,99.0,'11111222,11111222,11144222' 
ADCP,ioos:station:wmo:42361:1,2013-07-04T00:30:00Z,27.5500,-92.4900,122.0,6.4,357.0,99.0,'11111222,11111222,11144222' 
ADCP,ioos:station:wmo:42361:1,2013-07-04T01:30:00Z,27.5500,-92.4900,122.0,6.2,6.0,99.0,'11111222,11111222,11144222' 
ADCP,ioos:station:wmo:42361:1,2013-07-04T02:30:00Z,27.5500,-92.4900,122.0,6.9,10.0,99.0,'11111222,11111222,11144222' 
ADCP,ioos:station:wmo:42361:1,2013-07-04T03:30:00Z,27.5500,-92.4900,122.0,5.7,23.0,99.0,'11111222,11111222,11144222' 
ADCP,ioos:station:wmo:42361:1,2013-07-04T04:30:00Z,27.5500,-92.4900,122.0,5.6,14.0,99.0,'11111222,11111222,11144222' 
ADCP,ioos:station:wmo:42361:1,2013-07-04T05:30:00Z,27.5500,-92.4900,122.0,3.8,21.0,99.0,'11111222,11111222,11144222' 
ADCP,ioos:station:wmo:42361:1,2013-07-04T06:30:00Z,27.5500,-92.4900,122.0,5.2,17.0,99.0,'11111222,11111222,11144222' 
ADCP,ioos:station:wmo:42361:1,2013-07-04T07:30:00Z,27.5500,-92.4900,122.0,6.5,13.0,99.0,'11111222,11111222,11144222' 
ADCP,ioos:station:wmo:42361:1,2013-07-04T08:30:00Z,27.5500,-92.4900,122.0,4.3,10.0,99.0,'11111222,11111222,11144222' 
ADCP,ioos:station:wmo:42361:1,2013-07-04T09:30:00Z,27.5500,-92.4900,122.0,1.7,30.0,99.0,'11111222,11111222,11144222' 
ADCP,ioos:station:wmo:42361:1,2013-07-04T10:30:00Z,27.5500,-92.4900,122.0,0.3,13.0,99.0,'11111222,11111222,11144222' 
ADCP,ioos:station:wmo:42361:1,2013-07-04T11:30:00Z,27.5500,-92.4900,122.0,0.9,267.0,99.0,'11111222,11111222,11144222' 
ADCP,ioos:station:wmo:42361:1,2013-07-04T12:30:00Z,27.5500,-92.4900,122.0,2.1,215.0,99.0,'11111222,11111222,11144222' 
ADCP,ioos:station:wmo:42361:1,2013-07-04T13:30:00Z,27.5500,-92.4900,122.0,2.2,260.0,99.0,'11111222,11111222,11144222' 
ADCP,ioos:station:wmo:42361:1,2013-07-04T14:30:00Z,27.5500,-92.4900,122.0,2.6,271.0,99.0,'11111222,11111222,11144222' 
ADCP,ioos:station:wmo:42361:1,2013-07-04T15:30:00Z,27.5500,-92.4900,122.0,3.1,289.0,99.0,'11111222,11111222,11144222' 
ADCP,ioos:station:wmo:42361:1,2013-07-04T16:30:00Z,27.5500,-92.4900,122.0,3.1,307.0,99.0,'11111222,11111222,11144222' 
ADCP,ioos:station:wmo:42361:1,2013-07-04T17:30:00Z,27.5500,-92.4900,122.0,2.1,317.0,99.0,'11111222,11111222,11144222' 
ADCP,ioos:station:wmo:42361:1,2013-07-04T18:30:00Z,27.5500,-92.4900,122.0,3.9,336.0,99.0,'11111222,11111222,11144222' 
ADCP,ioos:station:wmo:42361:1,2013-07-04T19:30:00Z,27.5500,-92.4900,122.0,3.1,348.0,99.0,'11111222,11111222,11144222' 
ADCP,ioos:station:wmo:42361:1,2013-07-04T20:30:00Z,27.5500,-92.4900,122.0,3.1,3.0,99.0,'11111222,11111222,11144222' 
ADCP,ioos:station:wmo:42361:1,2013-07-04T21:30:00Z,27.5500,-92.4900,122.0,3.0,13.0,99.0,'11111222,11111222,11144222' 
ADCP,ioos:station:wmo:42361:1,2013-07-04T22:30:00Z,27.5500,-92.4900,122.0,3.0,12.0,99.0,'11111222,11111222,11144222' 
ADCP,ioos:station:wmo:42361:1,2013-07-04T23:30:00Z,27.5500,-92.4900,122.0,2.6,20.0,99.0,'11111222,11111222,11144222' 
ADCP,ioos:station:wmo:42361:1,2013-07-05T00:30:00Z,27.5500,-92.4900,122.0,3.7,26.0,99.0,'11111222,11111222,11144222' 
ADCP,ioos:station:wmo:42361:1,2013-07-05T01:30:00Z,27.5500,-92.4900,122.0,3.5,60.0,99.0,'11111222,11111222,11144222' 
ADCP,ioos:station:wmo:42361:1,2013-07-05T02:30:00Z,27.5500,-92.4900,122.0,4.1,92.0,99.0,'11111222,11111222,11144222' 
ADCP,ioos:station:wmo:42361:1,2013-07-05T03:30:00Z,27.5500,-92.4900,122.0,5.7,115.0,99.0,'11111222,11111222,11144222' 
ADCP,ioos:station:wmo:42361:1,2013-07-05T04:30:00Z,27.5500,-92.4900,122.0,7.1,124.0,99.0,'11111222,11111222,11144222' 
ADCP,ioos:station:wmo:42361:1,2013-07-05T05:30:00Z,27.5500,-92.4900,122.0,7.4,135.0,99.0,'11111222,11111222,11144222' 
ADCP,ioos:station:wmo:42361:1,2013-07-05T06:30:00Z,27.5500,-92.4900,122.0,5.2,145.0,99.0,'11111222,11111222,11144222' 
ADCP,ioos:station:wmo:42361:1,2013-07-05T07:30:00Z,27.5500,-92.4900,122.0,5.1,150.0,99.0,'11111222,11111222,11144222' 
ADCP,ioos:station:wmo:42361:1,2013-07-05T08:30:00Z,27.5500,-92.4900,122.0,5.3,168.0,99.0,'11111222,11111222,11144222' 
ADCP,ioos:station:wmo:42361:1,2013-07-05T09:30:00Z,27.5500,-92.4900,122.0,4.3,155.0,99.0,'11111222,11111222,11144222' 
ADCP,ioos:station:wmo:42361:1,2013-07-05T10:30:00Z,27.5500,-92.4900,122.0,4.5,157.0,99.0,'11111222,11111222,11144222' 
ADCP,ioos:station:wmo:42361:1,2013-07-05T11:30:00Z,27.5500,-92.4900,122.0,5.1,153.0,99.0,'11111222,11111222,11144222' 
ADCP,ioos:station:wmo:42361:1,2013-07-05T12:30:00Z,27.5500,-92.4900,122.0,6.5,162.0,99.0,'11111222,11111222,11144222' 
ADCP,ioos:station:wmo:42361:1,2013-07-05T13:30:00Z,27.5500,-92.4900,122.0,5.4,220.0,99.0,'11111222,11111222,11144222' 
ADCP,ioos:station:wmo:42361:1,2013-07-05T14:30:00Z,27.5500,-92.4900,122.0,4.8,234.0,99.0,'11111222,11111222,11144222' 
ADCP,ioos:station:wmo:42361:1,2013-07-05T15:30:00Z,27.5500,-92.4900,122.0,4.8,208.0,99.0,'11111222,11111222,11144222' 
ADCP,ioos:station:wmo:42361:1,2013-07-05T16:30:00Z,27.5500,-92.4900,122.0,1.7,259.0,99.0,'11111222,11111222,11144222' 
ADCP,ioos:station:wmo:42361:1,2013-07-05T17:30:00Z,27.5500,-92.4900,122.0,2.4,266.0,99.0,'11111222,11111222,11144222' 
ADCP,ioos:station:wmo:42361:1,2013-07-05T18:30:00Z,27.5500,-92.4900,122.0,2.7,293.0,99.0,'11111222,11111222,11144222' 
ADCP,ioos:station:wmo:42361:1,2013-07-05T19:30:00Z,27.5500,-92.4900,122.0,2.1,38.0,99.0,'11111222,11111222,11144222' 
ADCP,ioos:station:wmo:42361:1,2013-07-05T20:30:00Z,27.5500,-92.4900,122.0,5.2,44.0,99.0,'11111222,11111222,11144222' 
ADCP,ioos:station:wmo:42361:1,2013-07-05T21:30:00Z,27.5500,-92.4900,122.0,5.2,45.0,99.0,'11111222,11111222,11144222' 
ADCP,ioos:station:wmo:42361:1,2013-07-05T22:30:00Z,27.5500,-92.4900,122.0,7.5,55.0,99.0,'11111222,11111222,11144222' 
ADCP,ioos:station:wmo:42361:1,2013-07-05T23:30:00Z,27.5500,-92.4900,122.0,10.2,78.0,99.0,'11111222,11111222,11144222' 
ADCP,ioos:station:wmo:42361:1,2013-07-06T00:30:00Z,27.5500,-92.4900,122.0,11.7,86.0,99.0,'11111222,11111222,11144222' 
ADCP,ioos:station:wmo:42361:1,2013-07-06T01:30:00Z,27.5500,-92.4900,122.0,11.4,101.0,99.0,'11111222,11111222,11144222' 
ADCP,ioos:station:wmo:42361:1,2013-07-06T02:30:00Z,27.5500,-92.4900,122.0,12.3,112.0,99.0,'11111222,11111222,11144222' 
ADCP,ioos:station:wmo:42361:1,2013-07-06T03:30:00Z,27.5500,-92.4900,122.0,11.6,118.0,99.0,'11111222,11111222,11144222' 
ADCP,ioos:station:wmo:42361:1,2013-07-06T04:30:00Z,27.5500,-92.4900,122.0,13.5,122.0,99.0,'11111222,11111222,11144222' 
ADCP,ioos:station:wmo:42361:1,2013-07-06T05:30:00Z,27.5500,-92.4900,122.0,14.6,126.0,99.0,'11111222,11111222,11144222' 
ADCP,ioos:station:wmo:42361:1,2013-07-06T06:30:00Z,27.5500,-92.4900,122.0,14.3,122.0,99.0,'11111222,11111222,11144222' 
ADCP,ioos:station:wmo:42361:1,2013-07-06T07:30:00Z,27.5500,-92.4900,122.0,14.0,123.0,99.0,'11111222,11111222,11144222' 
ADCP,ioos:station:wmo:42361:1,2013-07-06T08:30:00Z,27.5500,-92.4900,122.0,12.3,124.0,99.0,'11111222,11111222,11144222' 
ADCP,ioos:station:wmo:42361:1,2013-07-06T09:30:00Z,27.5500,-92.4900,122.0,11.4,133.0,99.0,'11111222,11111222,11144222' 
ADCP,ioos:station:wmo:42361:1,2013-07-06T10:30:00Z,27.5500,-92.4900,122.0,9.6,135.0,99.0,'11111222,11111222,11144222' 
ADCP,ioos:station:wmo:42361:1,2013-07-06T11:30:00Z,27.5500,-92.4900,122.0,9.3,120.0,99.0,'11111222,11111222,11144222' 
ADCP,ioos:station:wmo:42361:1,2013-07-06T12:30:00Z,27.5500,-92.4900,122.0,10.5,155.0,99.0,'11111222,11111222,11144222' 
ADCP,ioos:station:wmo:42361:1,2013-07-06T13:30:00Z,27.5500,-92.4900,122.0,8.2,154.0,99.0,'11111222,11111222,11144222' 
ADCP,ioos:station:wmo:42361:1,2013-07-06T14:30:00Z,27.5500,-92.4900,122.0,8.0,154.0,99.0,'11111222,11111222,11144222' 
ADCP,ioos:station:wmo:42361:1,2013-07-06T15:30:00Z,27.5500,-92.4900,122.0,5.7,175.0,99.0,'11111222,11111222,11144222' 
ADCP,ioos:station:wmo:42361:1,2013-07-06T16:30:00Z,27.5500,-92.4900,122.0,5.0,185.0,99.0,'11111222,11111222,11144222' 
ADCP,ioos:station:wmo:42361:1,2013-07-06T17:30:00Z,27.5500,-92.4900,122.0,6.8,171.0,99.0,'11111222,11111222,11144222' 
ADCP,ioos:station:wmo:42361:1,2013-07-06T18:30:00Z,27.5500,-92.4900,122.0,7.8,176.0,99.0,'11111222,11111222,11144222' 
ADCP,ioos:station:wmo:42361:1,2013-07-06T19:30:00Z,27.5500,-92.4900,122.0,9.3,166.0,99.0,'11111222,11111222,11144222' 
ADCP,ioos:station:wmo:42361:1,2013-07-06T20:30:00Z,27.5500,-92.4900,122.0,12.3,161.0,99.0,'11111222,11111222,11144222' 
ADCP,ioos:station:wmo:42361:1,2013-07-06T21:30:00Z,27.5500,-92.4900,122.0,14.9,170.0,99.0,'11111222,11111222,11144222' 
ADCP,ioos:station:wmo:42361:1,2013-07-06T22:30:00Z,27.5500,-92.4900,122.0,13.8,179.0,99.0,'11111222,11111222,11144222' 
ADCP,ioos:station:wmo:42361:1,2013-07-06T23:30:00Z,27.5500,-92.4900,122.0,12.1,187.0,99.0,'11111222,11111222,11144222' 
ADCP,ioos:station:wmo:42361:1,2013-07-07T00:30:00Z,27.5500,-92.4900,122.0,8.3,225.0,99.0,'11111222,11111222,11144222' 
ADCP,ioos:station:wmo:42361:1,2013-07-07T01:30:00Z,27.5500,-92.4900,122.0,2.5,218.0,99.0,'11111222,11111222,11144222' 
ADCP,ioos:station:wmo:42361:1,2013-07-07T02:30:00Z,27.5500,-92.4900,122.0,1.6,278.0,99.0,'11111222,11111222,11144222' 
ADCP,ioos:station:wmo:42361:1,2013-07-07T03:30:00Z,27.5500,-92.4900,122.0,5.7,129.0,99.0,'11111222,11111222,11144222' 
ADCP,ioos:station:wmo:42361:1,2013-07-07T04:30:00Z,27.5500,-92.4900,122.0,9.2,127.0,99.0,'11111222,11111222,11144222' 
ADCP,ioos:station:wmo:42361:1,2013-07-07T05:30:00Z,27.5500,-92.4900,122.0,9.6,136.0,99.0,'11111222,11111222,11144222' 
ADCP,ioos:station:wmo:42361:1,2013-07-07T06:30:00Z,27.5500,-92.4900,122.0,8.8,136.0,99.0,'11111222,11111222,11144222' 
ADCP,ioos:station:wmo:42361:1,2013-07-07T07:30:00Z,27.5500,-92.4900,122.0,9.1,139.0,99.0,'11111222,11111222,11144222' 
ADCP,ioos:station:wmo:42361:1,2013-07-07T08:30:00Z,27.5500,-92.4900,122.0,9.0,131.0,99.0,'11111222,11111222,11144222' 
ADCP,ioos:station:wmo:42361:1,2013-07-07T09:30:00Z,27.5500,-92.4900,122.0,10.2,131.0,99.0,'11111222,11111222,11144222' 
ADCP,ioos:station:wmo:42361:1,2013-07-07T10:30:00Z,27.5500,-92.4900,122.0,10.1,128.0,99.0,'11111222,11111222,11144222' 
ADCP,ioos:station:wmo:42361:1,2013-07-07T11:30:00Z,27.5500,-92.4900,122.0,8.8,121.0,99.0,'11111222,11111222,11144222' 
ADCP,ioos:station:wmo:42361:1,2013-07-07T12:30:00Z,27.5500,-92.4900,122.0,10.2,125.0,99.0,'11111222,11111222,11144222' 
ADCP,ioos:station:wmo:42361:1,2013-07-07T13:30:00Z,27.5500,-92.4900,122.0,10.0,120.0,99.0,'11111222,11111222,11144222' 
ADCP,ioos:station:wmo:42361:1,2013-07-07T14:30:00Z,27.5500,-92.4900,122.0,10.1,140.0,99.0,'11111222,11111222,11144222' 
ADCP,ioos:station:wmo:42361:1,2013-07-07T15:30:00Z,27.5500,-92.4900,122.0,13.9,176.0,99.0,'11111222,11111222,11144222' 
ADCP,ioos:station:wmo:42361:1,2013-07-07T16:30:00Z,27.5500,-92.4900,122.0,10.8,164.0,99.0,'11111222,11111222,11144222' 
ADCP,ioos:station:wmo:42361:1,2013-07-07T17:30:00Z,27.5500,-92.4900,122.0,8.0,175.0,99.0,'11111222,11111222,11144222' 
ADCP,ioos:station:wmo:42361:1,2013-07-07T18:30:00Z,27.5500,-92.4900,122.0,8.1,161.0,99.0,'11111222,11111222,11144222' 
ADCP,ioos:station:wmo:42361:1,2013-07-07T19:30:00Z,27.5500,-92.4900,122.0,6.1,159.0,99.0,'11111222,11111222,11144222' 
ADCP,ioos:station:wmo:42361:1,2013-07-07T20:30:00Z,27.5500,-92.4900,122.0,3.3,116.0,99.0,'11111222,11111222,11144222' 
ADCP,ioos:station:wmo:42361:1,2013-07-07T21:30:00Z,27.5500,-92.4900,122.0,2.8,84.0,99.0,'11111222,11111222,11144222' 
ADCP,ioos:station:wmo:42361:1,2013-07-07T22:30:00Z,27.5500,-92.4900,122.0,1.9,76.0,99.0,'11111222,11111222,11144222' 
ADCP,ioos:station:wmo:42361:1,2013-07-07T23:30:00Z,27.5500,-92.4900,122.0,0.6,355.0,99.0,'11111222,11111222,11144222' 
ADCP,ioos:station:wmo:42361:1,2013-07-08T00:30:00Z,27.5500,-92.4900,122.0,4.4,78.0,99.0,'11111222,11111222,11144222' 
ADCP,ioos:station:wmo:42361:1,2013-07-08T01:30:00Z,27.5500,-92.4900,122.0,6.5,84.0,99.0,'11111222,11111222,11144222' 
ADCP,ioos:station:wmo:42361:1,2013-07-08T02:30:00Z,27.5500,-92.4900,122.0,8.5,90.0,99.0,'11111222,11111222,11144222' 
ADCP,ioos:station:wmo:42361:1,2013-07-08T03:30:00Z,27.5500,-92.4900,122.0,8.3,90.0,99.0,'11111222,11111222,11144222' 
ADCP,ioos:station:wmo:42361:1,2013-07-08T04:30:00Z,27.5500,-92.4900,122.0,8.6,90.0,99.0,'11111222,11111222,11144222' 
ADCP,ioos:station:wmo:42361:1,2013-07-08T05:30:00Z,27.5500,-92.4900,122.0,10.0,95.0,99.0,'11111222,11111222,11144222' 
ADCP,ioos:station:wmo:42361:1,2013-07-08T06:30:00Z,27.5500,-92.4900,122.0,9.2,91.0,99.0,'11111222,11111222,11144222' 
ADCP,ioos:station:wmo:42361:1,2013-07-08T07:30:00Z,27.5500,-92.4900,122.0,9.2,96.0,99.0,'11111222,11111222,11144222' 
ADCP,ioos:station:wmo:42361:1,2013-07-08T08:30:00Z,27.5500,-92.4900,122.0,9.0,100.0,99.0,'11111222,11111222,11144222' 
ADCP,ioos:station:wmo:42361:1,2013-07-08T09:30:00Z,27.5500,-92.4900,122.0,8.4,101.0,99.0,'11111222,11111222,11144222' 
ADCP,ioos:station:wmo:42361:1,2013-07-08T10:30:00Z,27.5500,-92.4900,122.0,7.0,103.0,99.0,'11111222,11111222,11144222' 
ADCP,ioos:station:wmo:42361:1,2013-07-08T11:30:00Z,27.5500,-92.4900,122.0,5.9,92.0,99.0,'11111222,11111222,11144222' 
ADCP,ioos:station:wmo:42361:1,2013-07-08T12:30:00Z,27.5500,-92.4900,122.0,5.2,80.0,99.0,'11111222,11111222,11144222' 
ADCP,ioos:station:wmo:42361:1,2013-07-08T13:30:00Z,27.5500,-92.4900,122.0,4.8,71.0,99.0,'11111222,11111222,11144222' 
ADCP,ioos:station:wmo:42361:1,2013-07-08T14:30:00Z,27.5500,-92.4900,122.0,5.9,93.0,99.0,'11111222,11111222,11144222' 
ADCP,ioos:station:wmo:42361:1,2013-07-08T15:30:00Z,27.5500,-92.4900,122.0,5.9,98.0,99.0,'11111222,11111222,11144222' 
ADCP,ioos:station:wmo:42361:1,2013-07-08T16:30:00Z,27.5500,-92.4900,122.0,5.8,93.0,99.0,'11111222,11111222,11144222' 
ADCP,ioos:station:wmo:42361:1,2013-07-08T17:30:00Z,27.5500,-92.4900,122.0,5.6,90.0,99.0,'11111222,11111222,11144222' 
ADCP,ioos:station:wmo:42361:1,2013-07-08T18:30:00Z,27.5500,-92.4900,122.0,5.4,83.0,99.0,'11111222,11111222,11144222' 
ADCP,ioos:station:wmo:42361:1,2013-07-08T19:30:00Z,27.5500,-92.4900,122.0,6.0,80.0,99.0,'11111222,11111222,11144222' 
ADCP,ioos:station:wmo:42361:1,2013-07-08T20:30:00Z,27.5500,-92.4900,122.0,6.3,78.0,99.0,'11111222,11111222,11144222' 
ADCP,ioos:station:wmo:42361:1,2013-07-08T21:30:00Z,27.5500,-92.4900,122.0,6.7,83.0,99.0,'11111222,11111222,11144222' 
ADCP,ioos:station:wmo:42361:1,2013-07-08T22:30:00Z,27.5500,-92.4900,122.0,6.8,86.0,99.0,'11111222,11111222,11144222' 
ADCP,ioos:station:wmo:42361:1,2013-07-08T23:30:00Z,27.5500,-92.4900,122.0,7.1,84.0,99.0,'11111222,11111222,11144222' 
ADCP,ioos:station:wmo:42361:1,2013-07-09T00:30:00Z,27.5500,-92.4900,122.0,7.2,81.0,99.0,'11111222,11111222,11144222' 
ADCP,ioos:station:wmo:42361:1,2013-07-09T01:30:00Z,27.5500,-92.4900,122.0,7.2,81.0,99.0,'11111222,11111222,11144222' 
ADCP,ioos:station:wmo:42361:1,2013-07-09T02:30:00Z,27.5500,-92.4900,122.0,7.1,81.0,99.0,'11111222,11111222,11144222' 
ADCP,ioos:station:wmo:42361:1,2013-07-09T03:30:00Z,27.5500,-92.4900,122.0,7.5,88.0,99.0,'11111222,11111222,11144222' 
ADCP,ioos:station:wmo:42361:1,2013-07-09T04:30:00Z,27.5500,-92.4900,122.0,6.9,97.0,99.0,'11111222,11111222,11144222' 
ADCP,ioos:station:wmo:42361:1,2013-07-09T05:30:00Z,27.5500,-92.4900,122.0,6.2,96.0,99.0,'11111222,11111222,11144222' 
ADCP,ioos:station:wmo:42361:1,2013-07-09T06:30:00Z,27.5500,-92.4900,122.0,6.1,98.0,99.0,'11111222,11111222,11144222' 
ADCP,ioos:station:wmo:42361:1,2013-07-09T07:30:00Z,27.5500,-92.4900,122.0,5.3,105.0,99.0,'11111222,11111222,11144222' 
ADCP,ioos:station:wmo:42361:1,2013-07-09T08:30:00Z,27.5500,-92.4900,122.0,4.6,104.0,99.0,'11111222,11111222,11144222' 
ADCP,ioos:station:wmo:42361:1,2013-07-09T09:30:00Z,27.5500,-92.4900,122.0,8.1,99.0,99.0,'11111222,11111222,11144222' 